User: anonymous   Login
Location: Unspecified
(0.0000°N, 0.0000°E)
Time: 04:14:57
(UTC+00:00)
Language:

STARLINK-31209 - Orbit

View from above orbital plane
View from above orbital plane
View from above satellite
View from above satellite

Ground track
Ground track

The orbit is defined by the following mean orbital elements,

1 58883U          26145.52789933 +.00000000 +00000-0 +40442-4 0 00007
2 58883  53.1590 324.9337 0001130  91.7729 268.3403 15.34395806    08
Epoch (UTC): 25 May 2026 12:40:10
Eccentricity: 0.0001130
inclination: 53.1590°
perigee height: 462 km
apogee height: 463 km
right ascension of ascending node: 324.9337°
argument of perigee: 91.7729°
revolutions per day: 15.34395806
mean anomaly at epoch: 268.3403°

The dashed part of the orbit path shows where the satellite is in the earth's shadow,  

DLR